CAPE
0 0 0 0 0 43 2 10 2 0 206 1033 324 508 533 660 592 555 237 0 46 580 1240 1097 1133 828 172 104 61 30 36 82 173 241 287 302 298 351 396 409 387 387 557 647 542 462 438 440 485
0 0 0 0 0 0 0 13 5 53 978 866 786 1006 1105 1097 881 451 0 36 157 675 1297 1209 1168 877 257 118 41 0 22 55 81 107 132 171 237 228 190 160 199 320 459 509 483 463 419 377 421
0 0 0 0 0 0 0 15 113 383 1077 1058 948 1139 1188 971 674 277 125 50 184 290 969 1237 965 632 205 58 46 28 18 21 21 59 95 114 122 78 84 99 137 167 208 264 308 325 384 449 490
0 0 0 0 0 0 0 61 547 1216 1078 1000 1219 1147 1158 1207 757 480 59 0 0 64 648 983 852 604 330 195 205 215 185 128 82 26 18 29 54 83 89 75 67 145 292 426 504 489 430 407 445
0 0 0 0 0 0 0 96 876 1046 1056 1054 900 609 1124 1236 497 9 0 0 0 14 401 874 757 553 405 275 179 80 36 54 82 111 121 112 84 42 60 209 392 528 653 711 710 468 270 152 279
0 0 0 0 0 31 131 68 742 850 1111 1121 725 662 1277 1200 90 0 0 0 0 0 194 375 259 157 116 99 60 24 29 60 147 207 212 219 222 223 392 430 464 470 306 296 212 70 11 0 0
0 0 0 0 0 137 145 303 440 942 1083 965 1024 469 1298 1237 214 16 0 0 0 29 48 165 101 137 75 37 14 66 221 268 118 6 0 109 372 516 619 316 137 5 0 0 0 0 0 0 0
0 0 0 0 0 0 325 493 650 891 857 1411 1175 156 575 1486 704 539 13 0 9 37 25 58 206 150 170 210 267 356 341 76 0 0 0 175 265 150 0 0 0 0 0 0 0 0 0 0 0
0 0 0 0 0 0 392 393 470 298 815 1243 1128 1120 1122 1518 1135 947 215 99 128 203 163 178 261 389 476 576 569 322 207 0 0 0 0 0 0 0 0 0 0 0 0 0 0 0 0 0 0
0 0 0 0 0 0 227 423 533 323 644 781 822 1502 1588 1478 1423 1010 259 51 137 119 146 302 467 430 497 332 175 7 0 0 0 0 0 0 0 0 0 0 0 0 0 0 0 0 0 0 0
0 0 0 0 0 0 241 388 505 207 440 507 344 1323 1619 1594 1663 1250 362 48 288 10 138 212 288 402 212 0 9 0 0 0 0 0 0 0 0 0 0 0 0 0 0 0 0 0 0 0 0
0 0 0 0 0 0 0 501 541 246 495 597 772 1398 1635 1591 1625 1498 790 135 386 173 0 24 103 36 150 111 0 0 0 0 0 0 0 0 0 0 0 0 0 0 0 0 0 0 0 0 0
0 0 0 0 0 0 0 75 534 372 355 570 821 1684 1537 1529 1684 1678 1283 342 435 463 0 0 20 80 86 34 26 0 0 0 0 0 0 0 0 0 0 0 0 0 0 0 0 0 0 0 0
0 0 0 0 0 0 0 0 299 274 324 675 855 1593 1643 1272 1445 1758 1594 835 513 887 109 0 2 61 53 12 30 4 0 0 0 0 0 0 0 0 0 0 0 0 0 0 0 0 0 0 0
0 0 0 0 0 0 0 0 0 1 174 605 1143 1705 1633 1252 1804 1568 1658 1494 787 1088 585 143 147 242 39 18 9 0 0 0 0 0 0 0 0 0 0 0 0 0 0 0 0 0 0 0 0
0 0 0 0 0 0 0 0 0 12 133 490 813 1428 1550 1571 1511 1831 2011 1850 1507 986 1370 578 347 302 119 20 0 0 0 0 0 0 0 0 0 0 0 0 0 0 0 0 0 0 0 0 0
0 0 0 0 0 0 0 0 0 48 397 548 770 1112 1366 1737 1881 1983 1776 1844 1750 1149 1081 940 195 232 231 1 0 0 0 0 0 0 0 0 0 0 0 0 0 0 0 0 0 0 0 0 0
0 0 0 0 0 0 0 0 0 0 413 516 742 1026 1167 1405 1469 1321 1464 1363 1330 609 225 123 54 10 3 0 0 0 0 0 0 0 0 0 0 0 0 0 0 0 0 0 0 0 0 0 0
0 0 0 0 0 0 0 0 0 0 84 465 789 1083 1065 1128 1374 946 658 263 36 0 7 4 5 0 0 0 0 0 0 0 0 0 0 0 0 0 0 0 0 0 0 0 0 0 0 0 0
0 0 0 0 0 0 0 0 0 0 0 21 659 825 929 901 52 0 0 0 0 0 0 0 0 0 0 0 0 0 0 0 0 0 0 0 0 0 0 0 0 0 0 0 4 3 3 3 2
0 0 0 0 0 0 0 0 0 0 0 107 22 0 21 48 35 0 0 0 0 0 0 0 0 0 0 0 0 0 0 0 0 0 0 0 0 0 0 0 0 1 2 1 2 3 1 3 0
0 0 0 0 0 0 0 0 0 0 0 0 0 0 4 0 0 0 0 0 0 0 0 0 0 0 0 0 0 0 0 0 0 0 0 0 0 0 0 0 1 5 3 2 2 3 4 3 4
0 0 0 0 0 0 0 0 0 0 0 0 0 0 0 0 0 0 0 0 0 0 0 0 0 0 0 0 0 0 0 0 0 0 0 0 0 0 0 0 1 1 4 3 5 3 2 3 3
0 0 0 0 0 0 0 0 0 0 0 0 0 0 0 0 0 0 0 0 0 0 0 0 0 0 0 0 0 0 0 0 0 0 0 0 0 0 0 0 0 2 6 5 3 2 3 2 3
0 0 0 0 0 0 0 0 0 0 0 0 0 0 0 1 0 0 0 0 0 0 0 0 0 0 0 0 0 0 0 0 0 0 0 0 0 0 0 0 0 0 2 2 3 2 2 2 2
0 0 0 0 0 0 0 0 0 0 0 0 0 0 0 0 0 0 0 0 0 0 0 0 0 0 0 0 0 0 0 0 0 0 0 0 0 0 0 0 0 0 1 0 1 3 2 2 2
0 0 0 0 0 0 0 0 0 0 0 0 0 0 0 0 0 0 0 0 0 0 0 0 0 0 0 0 0 0 0 0 0 0 0 0 0 0 0 0 0 0 0 0 0 1 3 3 2
0 0 0 0 0 0 0 0 0 0 0 0 0 0 0 0 0 0 0 0 0 0 0 0 0 0 0 0 0 0 0 0 0 0 0 0 0 0 0 0 0 0 0 0 0 0 0 5 3
0 0 0 0 0 0 0 0 0 0 0 0 0 0 0 0 0 0 0 0 0 0 0 0 0 0 0 0 0 0 0 0 0 0 0 0 0 0 0 0 0 0 0 0 0 0 0 0 0
0 0 0 0 0 0 0 0 0 0 0 0 5 0 0 0 0 0 0 0 0 0 0 0 0 0 0 0 0 0 0 0 0 0 0 0 0 0 0 0 0 0 0 0 0 0 0 0 0
CIN
-0 -0 -0 -0 -0 -143 -67 -129 -202 -0 -134 -74 -110 -63 -59 -49 -27 -14 -218 -0 -276 -131 -63 -63 -60 -88 -180 -193 -244 -271 -264 -232 -206 -192 -172 -156 -153 -132 -120 -120 -111 -100 -59 -41 -55 -71 -77 -75 -58
-0 -0 -0 -0 -0 -0 -0 -238 -155 -184 -122 -103 -83 -51 -31 -24 -75 -135 -0 -364 -249 -141 -70 -62 -68 -95 -175 -233 -284 -0 -163 -277 -255 -243 -225 -218 -193 -193 -196 -205 -178 -126 -84 -73 -76 -78 -90 -96 -84
-0 -0 -0 -0 -0 -0 -0 -202 -157 -165 -130 -85 -63 -54 -33 -51 -133 -159 -294 -436 -281 -222 -115 -76 -105 -136 -211 -289 -285 -312 -225 -321 -325 -299 -267 -248 -230 -235 -229 -213 -191 -180 -164 -136 -123 -109 -92 -78 -70
-0 -0 -0 -0 -0 -0 -0 -230 -154 -104 -121 -107 -55 -41 -69 -92 -105 -167 -338 -0 -0 -321 -150 -125 -139 -160 -197 -230 -228 -226 -228 -252 -262 -292 -308 -294 -265 -240 -244 -239 -235 -180 -126 -90 -75 -72 -75 -80 -77
-0 -0 -0 -0 -0 -0 -0 -277 -142 -100 -97 -83 -79 -105 -85 -103 -223 -175 -0 -0 -0 -121 -211 -123 -167 -184 -207 -219 -229 -263 -282 -272 -273 -254 -248 -246 -264 -273 -253 -179 -117 -87 -60 -50 -43 -62 -90 -129 -88
-0 -0 -0 -0 -0 -250 -261 -328 -176 -114 -105 -105 -103 -111 -86 -142 -264 -0 -0 -0 -0 -0 -264 -215 -256 -268 -272 -277 -289 -305 -310 -289 -259 -236 -231 -211 -198 -183 -125 -106 -91 -78 -101 -96 -110 -165 -78 -0 -0
-0 -0 -0 -0 -0 -115 -188 -301 -178 -106 -93 -103 -110 -104 -125 -143 -270 -254 -0 -0 -0 -266 -289 -252 -256 -272 -293 -302 -308 -299 -256 -242 -273 -67 -0 -227 -152 -115 -91 -124 -161 -48 -0 -0 -0 -0 -0 -0 -0
-0 -0 -0 -0 -0 -0 -217 -215 -186 -114 -105 -140 -121 -100 -100 -130 -239 -216 -119 -0 -346 -317 -305 -262 -239 -215 -230 -231 -254 -226 -230 -248 -0 -0 -0 -200 -174 -191 -0 -0 -0 -0 -0 -0 -0 -0 -0 -0 -0
-0 -0 -0 -0 -0 -0 -239 -179 -239 -258 -131 -145 -140 -143 -131 -162 -201 -167 -239 -256 -247 -243 -246 -234 -209 -208 -191 -170 -199 -248 -272 -0 -0 -0 -0 -0 -0 -0 -0 -0 -0 -0 -0 -0 -0 -0 -0 -0 -0
-0 -0 -0 -0 -0 -0 -234 -179 -180 -167 -136 -128 -141 -168 -173 -184 -157 -135 -180 -211 -198 -228 -224 -191 -190 -200 -199 -219 -240 -48 -0 -0 -0 -0 -0 -0 -0 -0 -0 -0 -0 -0 -0 -0 -0 -0 -0 -0 -0
-0 -0 -0 -0 -0 -0 -176 -184 -185 -142 -110 -83 -83 -132 -185 -160 -142 -126 -152 -160 -149 -102 -199 -215 -239 -238 -228 -0 -45 -0 -0 -0 -0 -0 -0 -0 -0 -0 -0 -0 -0 -0 -0 -0 -0 -0 -0 -0 -0
-0 -0 -0 -0 -0 -0 -0 -145 -156 -165 -69 -92 -111 -122 -160 -159 -139 -112 -135 -185 -133 -157 -0 -211 -262 -308 -302 -284 -0 -0 -0 -0 -0 -0 -0 -0 -0 -0 -0 -0 -0 -0 -0 -0 -0 -0 -0 -0 -0
-0 -0 -0 -0 -0 -0 -0 -138 -93 -144 -180 -120 -126 -147 -149 -144 -127 -110 -103 -178 -159 -143 -0 -0 -295 -320 -346 -356 -215 -0 -0 -0 -0 -0 -0 -0 -0 -0 -0 -0 -0 -0 -0 -0 -0 -0 -0 -0 -0
-0 -0 -0 -0 -0 -0 -0 -0 -173 -108 -188 -125 -135 -137 -140 -145 -137 -114 -114 -148 -183 -137 -203 -0 -27 -314 -348 -384 -357 -249 -0 -0 -0 -0 -0 -0 -0 -0 -0 -0 -0 -0 -0 -0 -0 -0 -0 -0 -0
-0 -0 -0 -0 -0 -0 -0 -0 -0 -6 -173 -119 -136 -140 -127 -135 -136 -119 -103 -101 -150 -123 -160 -252 -264 -298 -337 -370 -400 -0 -0 -0 -0 -0 -0 -0 -0 -0 -0 -0 -0 -0 -0 -0 -0 -0 -0 -0 -0
-0 -0 -0 -0 -0 -0 -0 -0 -0 -57 -157 -115 -119 -138 -127 -133 -141 -130 -96 -97 -114 -138 -124 -184 -242 -263 -306 -396 -0 -0 -0 -0 -0 -0 -0 -0 -0 -0 -0 -0 -0 -0 -0 -0 -0 -0 -0 -0 -0
-0 -0 -0 -0 -0 -0 -0 -0 -0 -172 -104 -65 -110 -131 -135 -118 -153 -151 -139 -126 -104 -156 -152 -164 -306 -281 -283 -499 -0 -0 -0 -0 -0 -0 -0 -0 -0 -0 -0 -0 -0 -0 -0 -0 -0 -0 -0 -0 -0
-0 -0 -0 -0 -0 -0 -0 -0 -0 -0 -90 -58 -76 -129 -125 -148 -138 -213 -166 -172 -153 -279 -378 -404 -400 -299 -139 -0 -0 -0 -0 -0 -0 -0 -0 -0 -0 -0 -0 -0 -0 -0 -0 -0 -0 -0 -0 -0 -0
-0 -0 -0 -0 -0 -0 -0 -0 -0 -0 -113 -68 -75 -131 -126 -143 -137 -232 -274 -330 -466 -1 -396 -576 -589 -0 -0 -0 -0 -0 -0 -0 -0 -0 -0 -0 -0 -0 -0 -0 -0 -0 -0 -0 -0 -0 -1 -0 -0
-0 -0 -0 -0 -0 -0 -0 -0 -0 -0 -0 -138 -139 -129 -152 -172 -322 -0 -0 -0 -0 -0 -0 -0 -0 -0 -0 -0 -0 -0 -0 -0 -0 -0 -0 -0 -0 -0 -0 -0 -0 -0 -0 -0 -0 -0 -0 -0 -0
-0 -0 -0 -0 -0 -0 -0 -0 -0 -0 -0 -270 -158 -0 -367 -345 -134 -0 -0 -0 -0 -0 -0 -0 -0 -0 -0 -0 -0 -0 -0 -0 -0 -0 -0 -0 -0 -0 -0 -0 -0 -0 -1 -0 -0 -0 -0 -0 -0
-0 -0 -0 -0 -0 -0 -0 -0 -0 -0 -0 -0 -0 -0 -91 -0 -0 -0 -0 -0 -0 -0 -0 -0 -0 -0 -0 -0 -0 -0 -0 -0 -0 -0 -0 -0 -0 -0 -0 -0 -0 -0 -0 -0 -0 -0 -0 -0 -0
-0 -0 -0 -0 -0 -0 -0 -0 -0 -0 -0 -0 -0 -0 -0 -0 -0 -0 -0 -0 -0 -0 -0 -0 -0 -0 -0 -0 -0 -0 -0 -0 -0 -0 -0 -0 -0 -0 -0 -0 -0 -0 -1 -0 -0 -0 -0 -0 -0
-0 -0 -0 -0 -0 -0 -0 -0 -0 -0 -0 -0 -0 -0 -0 -0 -0 -0 -0 -0 -0 -0 -0 -0 -0 -0 -0 -0 -0 -0 -0 -0 -0 -0 -0 -0 -0 -0 -0 -0 -0 -0 -0 -0 -0 -0 -0 -0 -0
-0 -0 -0 -0 -0 -0 -0 -0 -0 -0 -0 -0 -0 -0 -0 -0 -0 -0 -0 -0 -0 -0 -0 -0 -0 -0 -0 -0 -0 -0 -0 -0 -0 -0 -0 -0 -0 -0 -0 -0 -0 -0 -0 -0 -0 -0 -0 -0 -0
-0 -0 -0 -0 -0 -0 -0 -0 -0 -0 -0 -0 -0 -0 -0 -0 -0 -0 -0 -0 -0 -0 -0 -0 -0 -0 -0 -0 -0 -0 -0 -0 -0 -0 -0 -0 -0 -0 -0 -0 -0 -0 -0 -0 -0 -0 -0 -0 -0
-0 -0 -0 -0 -0 -0 -0 -0 -0 -0 -0 -0 -0 -0 -0 -0 -0 -0 -0 -0 -0 -0 -0 -0 -0 -0 -0 -0 -0 -0 -0 -0 -0 -0 -0 -0 -0 -0 -0 -0 -0 -0 -0 -0 -0 -0 -0 -0 -0
-0 -0 -0 -0 -0 -0 -0 -0 -0 -0 -0 -0 -0 -0 -0 -0 -0 -0 -0 -0 -0 -0 -0 -0 -0 -0 -0 -0 -0 -0 -0 -0 -0 -0 -0 -0 -0 -0 -0 -0 -0 -0 -0 -0 -0 -0 -0 -0 -0
-0 -0 -0 -0 -0 -0 -0 -0 -0 -0 -0 -0 -0 -0 -0 -0 -0 -0 -0 -0 -0 -0 -0 -0 -0 -0 -0 -0 -0 -0 -0 -0 -0 -0 -0 -0 -0 -0 -0 -0 -0 -0 -0 -0 -0 -0 -0 -0 -0
-0 -0 -0 -0 -0 -0 -0 -0 -0 -0 -0 -0 -205 -0 -0 -0 -0 -0 -0 -0 -0 -0 -0 -0 -0 -0 -0 -0 -0 -0 -0 -0 -0 -0 -0 -0 -0 -0 -0 -0 -0 -0 -0 -0 -0 -0 -0 -0 -0
Wind_Speed
14 13 12 12 13 15 15 14 16 16 17 18 14 15 16 19 18 19 19 21 23 21 20 18 17 18 18 17 17 16 17 17 17 16 15 15 16 16 16 17 17 18 19 19 19 19 19 20 20
14 12 13 13 13 14 14 12 15 17 5 18 20 16 18 17 17 16 21 22 23 21 19 17 16 16 16 16 16 15 15 15 15 14 14 14 15 15 16 16 17 18 18 19 19 20 20 20 21
13 14 14 14 14 15 13 11 13 13 17 14 16 15 18 18 16 21 20 22 22 21 20 19 17 16 16 16 16 15 15 14 14 14 13 14 14 15 15 16 17 18 18 19 20 20 21 21 21
14 13 13 15 14 13 13 11 13 15 16 17 18 18 18 18 19 20 22 22 21 20 19 19 19 17 16 16 15 15 14 14 13 13 13 14 14 15 16 17 18 18 19 20 20 20 21 21 22
14 13 14 14 14 13 12 9 13 14 15 16 16 18 18 18 20 20 21 19 18 18 17 17 16 16 16 15 15 14 14 13 13 13 13 14 14 15 15 16 17 18 19 20 20 21 21 22 22
14 13 12 12 12 12 11 8 11 12 15 15 16 17 17 16 20 19 18 17 17 16 16 17 16 16 15 15 14 14 13 13 13 13 13 14 14 14 15 16 17 18 19 19 19 20 20 21 21
14 13 11 12 12 11 9 8 9 10 13 14 15 15 15 14 18 17 17 17 17 17 17 17 16 15 14 14 14 13 13 14 14 14 14 14 14 14 15 16 17 18 19 20 20 21 21 22 22
12 13 11 13 12 11 8 7 8 10 11 13 13 15 13 17 19 18 17 18 18 17 16 16 15 15 14 14 14 14 14 14 15 15 16 16 15 15 16 17 18 18 20 21 22 24 23 24 25
12 11 8 10 10 12 6 5 6 9 10 11 11 15 12 18 18 18 18 18 18 16 15 16 16 15 15 15 15 15 15 16 16 16 16 17 16 16 17 18 19 20 23 25 26 28 28 29 28
14 10 8 9 11 13 6 10 9 8 12 10 11 14 16 19 17 17 18 18 18 17 17 17 17 17 17 17 17 16 16 15 15 16 16 17 17 17 19 21 22 24 26 28 29 30 31 31 31
13 7 6 6 10 11 14 18 17 16 11 12 12 11 15 17 16 17 17 18 17 17 17 18 18 18 18 16 15 14 14 14 15 16 16 18 18 20 21 22 24 27 29 29 31 32 31 33 34
12 9 3 10 7 12 23 15 20 16 12 12 7 10 13 15 15 16 16 17 17 17 17 17 18 17 15 13 12 12 13 14 15 16 17 19 20 22 24 25 27 29 30 32 33 33 35 36 36
11 7 5 4 7 14 13 14 15 20 11 9 7 9 12 13 13 15 16 16 16 17 17 16 16 14 12 11 11 11 12 13 16 18 20 22 23 24 25 27 29 31 33 35 36 37 39 40 40
12 19 26 22 24 5 10 10 13 22 14 6 10 11 13 13 13 14 15 15 15 16 16 16 15 13 11 10 10 10 12 14 17 19 21 23 24 26 28 30 32 34 36 37 38 40 42 42 42
18 21 19 18 15 16 5 21 22 16 12 10 10 9 11 12 13 14 15 16 16 16 15 15 12 10 8 7 8 10 13 15 17 19 22 24 27 29 32 33 35 36 37 39 40 42 42 43 43
16 16 12 14 13 12 16 7 19 4 6 10 9 8 9 11 13 14 14 15 15 14 12 9 8 6 5 6 10 12 15 17 19 21 24 27 30 33 32 33 35 37 38 40 41 43 44 44 45
16 12 13 13 13 8 13 18 18 4 6 8 8 8 9 9 11 12 13 15 13 12 9 4 0 2 3 8 11 13 15 17 20 22 25 29 31 34 34 34 35 38 39 40 41 43 43 45 45
13 13 14 13 12 12 7 6 12 7 5 10 9 7 10 9 12 10 12 12 10 4 2 6 12 9 7 8 10 13 16 19 22 25 27 30 32 35 36 36 37 38 39 41 42 43 42 42 43
12 14 16 18 17 17 14 18 19 12 1 9 11 7 10 11 4 1 4 4 6 11 7 8 9 8 7 7 8 12 15 19 22 25 29 32 35 37 37 38 39 40 40 40 40 42 43 43 42
12 13 14 18 15 13 17 20 17 18 15 4 9 6 12 17 16 16 14 12 13 12 9 9 10 10 9 9 12 14 15 19 22 28 31 35 37 37 38 39 40 41 41 40 40 41 42 40 39
11 9 11 14 16 16 20 17 19 19 19 17 16 17 17 20 20 14 13 13 13 12 11 10 10 11 11 11 13 15 18 23 27 33 34 36 35 37 39 39 40 40 38 39 39 39 38 38 34
16 11 14 14 13 18 18 19 18 21 18 20 22 22 25 27 21 13 15 15 14 12 9 9 9 10 12 12 15 19 25 29 34 32 32 34 35 37 38 38 38 38 38 37 37 35 33 30 31
16 18 12 12 15 18 19 20 17 20 20 22 23 23 24 25 20 17 15 13 11 10 9 8 7 9 11 13 17 21 28 34 28 30 32 34 34 36 37 37 37 38 37 34 33 31 30 27 27
13 14 13 15 17 21 21 21 19 20 20 20 21 21 21 20 19 17 15 14 14 12 11 10 9 11 13 14 20 27 29 25 29 29 33 35 35 36 37 38 37 36 34 32 32 29 27 26 24
13 13 16 18 19 23 19 19 20 19 17 16 18 19 20 21 20 17 15 14 14 14 14 14 14 14 15 18 22 22 22 25 28 30 32 34 35 35 36 36 36 34 32 31 31 29 28 25 24
12 13 16 20 20 20 17 18 17 17 15 16 16 17 19 20 18 16 16 15 15 15 16 16 17 17 19 20 22 22 22 26 26 27 30 32 32 32 33 34 34 32 32 31 31 30 29 26 24
12 14 14 16 19 21 19 18 17 13 15 16 16 18 18 17 17 16 15 15 15 16 18 18 18 19 20 22 22 23 25 26 27 30 30 30 30 31 31 32 31 30 30 30 31 30 32 29 26
14 8 16 16 21 24 20 20 18 13 15 14 15 15 16 16 15 15 14 15 15 16 18 18 18 20 23 24 25 24 26 27 28 31 33 30 30 30 31 31 28 29 27 28 29 30 32 32 31
15 16 16 16 19 23 24 22 16 12 12 12 14 15 15 14 13 13 13 14 15 17 18 18 19 22 24 24 24 25 26 29 31 32 30 30 30 30 28 27 25 24 26 28 27 27 29 29 30
14 15 14 19 20 20 22 21 15 12 11 12 14 13 13 12 11 11 12 13 15 16 18 19 20 23 24 24 25 27 27 29 31 30 32 31 30 27 25 24 21 21 25 26 27 27 28 27 30
Wind_Direction
320 335 328 337 322 343 356 3 6 34 16 77 55 73 61 21 20 7 91 100 100 95 94 86 81 83 82 74 69 66 65 66 65 61 53 48 45 34 25 19 15 15 14 11 11 12 10 6 3
324 326 324 317 316 327 346 18 41 47 344 98 80 59 51 63 23 39 93 104 105 96 89 85 80 76 73 69 65 63 63 61 56 49 46 42 34 29 26 23 20 16 12 8 4 1 2 360 353
317 303 301 301 308 321 336 36 33 28 24 8 45 2 29 24 24 95 104 103 105 102 96 96 86 79 78 75 71 66 64 58 53 45 39 31 28 29 24 18 13 10 7 3 0 357 353 352 348
312 311 316 292 305 324 328 39 49 56 23 26 48 26 40 36 79 103 102 105 101 99 99 104 98 88 77 75 68 63 57 51 47 44 37 28 24 18 13 8 4 2 0 359 356 355 351 347 345
314 307 304 306 304 316 306 33 74 58 21 35 44 43 50 58 76 88 100 102 98 94 93 98 90 86 82 78 73 64 56 50 41 32 24 21 17 12 9 5 3 0 357 354 352 350 349 347 345
302 308 304 312 315 313 323 44 67 48 46 47 33 50 44 59 88 90 92 93 96 92 95 97 95 90 85 78 70 63 56 47 37 30 23 20 16 14 12 9 5 3 1 1 1 359 358 355 353
296 302 314 305 307 317 338 50 73 47 45 39 57 47 21 60 97 89 92 91 96 97 101 100 94 88 82 75 72 61 54 47 41 33 33 34 30 27 22 20 19 17 11 6 1 355 352 349 348
304 298 312 303 314 319 341 27 53 48 36 52 56 32 31 101 97 89 88 99 102 102 99 101 99 93 85 79 71 66 62 55 48 41 37 37 44 44 34 23 17 13 6 360 355 349 346 343 339
292 300 340 337 338 327 336 24 33 27 54 49 63 12 43 99 92 85 94 109 111 105 105 110 108 100 95 86 83 80 78 73 62 57 47 40 37 32 22 15 8 2 353 348 343 339 337 334 332
282 301 330 345 357 358 78 115 99 65 86 80 80 31 83 106 100 99 110 117 119 109 110 113 112 111 105 99 95 84 75 59 53 47 36 28 23 16 6 359 352 348 343 339 336 334 331 330 329
289 310 327 50 9 1 119 148 138 128 104 125 118 82 101 113 111 111 116 120 118 112 107 117 119 116 111 99 87 73 59 53 45 36 28 18 12 6 359 354 349 344 341 339 335 333 331 329 327
295 301 342 342 74 123 200 128 151 144 102 121 71 102 109 119 120 123 119 122 122 120 119 119 121 120 106 81 74 64 53 45 36 24 14 7 2 357 353 350 346 343 340 337 334 331 328 326 325
308 324 327 106 136 163 135 146 146 176 144 82 86 104 122 124 126 132 133 129 125 130 128 126 123 112 97 79 68 56 38 27 17 9 1 355 352 350 349 347 344 340 337 334 331 328 326 323 322
304 249 235 273 233 91 124 123 140 187 157 83 122 129 133 136 136 135 140 142 139 138 137 135 131 122 107 81 64 42 24 15 11 7 1 357 355 351 347 343 340 338 336 334 331 328 325 323 322
277 251 271 272 285 280 60 259 187 166 139 146 136 128 141 146 145 152 151 154 152 154 147 147 132 116 109 82 60 37 18 10 4 4 1 356 351 345 342 341 340 338 336 333 331 329 327 325 323
288 293 298 291 293 296 280 344 204 91 127 155 155 143 148 159 163 160 160 166 165 165 162 148 143 129 94 28 11 10 5 0 358 359 356 352 346 344 346 345 341 338 336 334 332 330 327 325 324
291 297 295 303 311 326 299 296 309 101 141 160 164 163 160 167 170 169 171 176 174 178 175 174 323 358 13 355 357 1 2 3 359 357 355 349 347 345 345 344 341 339 336 335 333 331 329 327 326
294 295 298 305 311 323 339 338 334 358 155 178 181 183 179 177 184 172 181 184 186 200 227 312 305 327 339 348 354 357 358 357 355 353 351 347 347 343 343 342 340 339 337 335 334 332 332 330 328
305 298 296 298 312 310 314 310 314 334 331 196 201 209 193 194 313 257 204 293 312 324 315 311 313 319 333 343 345 344 345 349 350 352 349 345 344 343 342 341 340 339 337 336 335 334 332 331 331
305 301 299 302 321 321 314 308 323 325 328 305 310 267 294 303 309 315 318 316 315 316 319 317 319 320 327 333 338 337 342 344 344 344 343 341 342 343 342 341 340 339 337 337 337 336 334 334 335
308 306 307 306 316 321 313 318 320 326 331 337 329 316 309 306 309 313 314 315 317 314 316 314 317 323 327 336 337 337 337 336 338 339 337 339 343 344 343 342 341 341 341 340 340 339 338 337 342
300 312 302 305 312 312 324 314 325 322 334 329 323 311 305 304 316 319 315 314 316 320 324 321 313 318 328 334 335 333 327 331 330 336 338 339 344 345 345 345 345 345 346 344 344 345 345 347 345
305 309 304 308 310 313 318 315 323 325 329 328 325 323 321 323 330 329 331 331 335 335 331 329 325 321 326 330 331 329 325 325 333 335 337 340 344 347 347 348 349 349 349 350 350 352 353 353 352
319 317 313 311 311 306 316 314 320 324 327 329 333 337 343 349 353 356 359 2 1 1 357 347 334 324 325 326 327 331 328 334 336 338 339 340 344 347 349 351 351 351 354 355 356 358 359 358 359
310 307 304 303 304 305 322 320 323 332 337 339 341 345 349 351 353 360 3 5 7 3 359 351 342 335 333 334 344 345 343 343 339 339 341 343 345 348 352 353 353 355 359 0 2 4 4 7 6
302 301 299 301 306 312 324 321 332 335 347 347 349 349 350 353 1 5 4 2 3 360 355 355 350 348 344 348 349 352 351 347 345 347 346 346 347 350 352 352 354 358 0 2 2 3 5 10 11
299 299 314 308 312 308 315 323 329 339 339 340 343 346 352 358 358 359 2 4 3 1 1 357 354 351 352 351 352 352 347 349 346 346 348 348 350 350 350 351 354 359 1 4 5 7 3 8 14
293 307 301 307 303 303 313 314 320 337 336 341 343 350 352 357 1 4 11 12 13 13 5 4 3 355 346 347 345 349 346 345 349 348 346 350 351 351 350 350 357 0 7 6 7 8 6 7 13
293 292 302 307 302 302 307 312 328 336 343 347 349 352 356 5 8 14 17 13 16 12 10 7 1 356 353 352 351 347 348 346 347 347 352 352 352 353 354 356 2 7 8 7 10 11 9 12 12
299 303 299 293 298 303 306 311 335 344 351 354 353 1 6 12 22 30 27 21 15 13 11 3 4 356 353 350 352 347 350 350 350 354 354 356 356 356 358 2 9 9 6 7 7 8 10 14 11